sat.trackr.live / text

‹ back to catalog

OUTPOST MISSION 1

NORAD 56226 · 2023-084BK

PAYLOAD ACTIVE UNKNOWN

§ Identity

Operator
Country
US
Launch date
2023-06-12
Launch site
AFWTR
Launch vehicle
Mass (kg)
RCS (m²)

External: N2YO · Heavens-Above · Gunter

§ Orbital elements

Epoch: 2026-06-28T15:35:06.699840Z

Period
87.85 min
Inclination
97.5806°
Eccentricity
0.0013255
Mean motion
16.39147782 rev/d
Perigee alt
159.4 km
Apogee alt
176.7 km
Semi-major
6,546.2 km
B*
5.0011e-4
RAAN
345.3696°
Arg perigee
264.1250°
Mean anomaly
95.8538°
Rev number
17,087

§ Raw data

OUTPOST MISSION 11 56226U 23084BK  26179.64938310  .05786670  26576-5  50011-3 0  99972 56226  97.5806 345.3696 0013255 264.1250  95.8538 16.39147782170879

JSON: /api/v1/satellites/56226 · /tle

For live sub-satellite position, see the globe view (requires WebGL).

§ Visibility from observer

Set your observer location to see the next 7 days of passes ≥ 10°. The values pass through the URL so the page stays shareable.

No JS? Fill the form by hand. The geolocation button needs JavaScript.